Helicity
29 18 37 44 38 33 29 23 19 15 16 12 10 11 14 19 21 23 20 21 18 16 29 23 20 18 17 15 14 13 12 11 6 2 3 4 4 9 15 15 15 17 38
46 33 48 51 47 40 32 30 26 21 16 11 7 13 19 22 22 24 24 25 25 21 22 21 22 18 18 18 17 14 13 14 12 6 -4 -8 -10 0 16 25 16 7 13
60 63 66 66 54 44 34 32 32 35 39 43 48 44 45 48 53 60 59 54 49 38 34 29 15 9 6 6 9 12 14 15 15 15 8 19 14 13 8 29 16 11 1
56 74 55 60 57 57 59 54 48 41 44 44 49 52 50 53 56 48 44 34 34 32 30 33 30 28 32 13 7 8 7 10 20 15 29 29 21 23 39 36 15 8 5
97 89 72 86 75 61 58 51 51 49 46 48 49 52 54 50 47 40 29 28 32 25 23 25 27 25 33 38 36 38 17 11 14 18 24 23 49 63 79 53 31 19 13
167 127 101 78 59 65 57 51 48 43 43 44 44 50 52 45 38 32 28 28 26 22 22 29 29 28 27 41 50 49 49 59 36 37 39 37 32 51 72 54 42 34 26
157 116 74 63 64 56 50 47 41 40 37 43 44 48 45 38 31 26 30 32 35 31 34 41 38 38 38 43 46 52 57 65 57 42 42 58 54 30 47 54 38 34 28
141 104 74 50 58 57 46 37 36 33 32 35 41 43 45 39 35 31 36 38 44 43 47 55 53 57 53 59 54 50 48 56 58 52 54 50 49 35 31 48 44 35 28
121 91 52 31 41 57 52 39 26 27 27 28 37 36 35 38 42 39 42 43 47 49 51 63 69 82 89 93 82 56 65 73 76 78 83 90 44 29 49 48 34 40 25
106 72 43 27 19 28 24 28 15 18 23 31 37 36 22 10 40 33 40 38 44 53 62 63 76 69 82 85 94 82 104 118 153 133 152 130 31 34 39 54 67 60 68
154 103 58 20 19 12 11 4 4 13 11 29 35 41 28 15 21 28 22 29 43 50 74 73 82 84 75 82 88 109 109 112 136 110 143 189 200 154 87 56 57 59 79
127 109 95 71 44 33 21 9 -4 8 7 22 38 45 42 35 38 37 36 48 62 76 67 70 72 70 80 90 86 105 111 135 154 137 146 186 189 160 93 54 71 86 88
100 82 78 79 66 63 60 29 36 31 24 23 41 51 47 51 48 44 47 51 49 57 52 63 72 74 88 96 97 97 97 113 111 125 124 133 135 116 102 78 98 120 128
89 70 68 79 80 80 68 49 23 30 22 31 35 52 49 48 54 62 57 50 47 43 53 58 57 64 84 93 84 82 69 70 79 78 83 94 92 109 142 180 163 153 151
86 77 75 86 69 74 85 40 37 27 25 31 40 53 49 53 56 56 55 50 45 41 46 48 54 50 73 74 73 74 52 64 88 74 72 104 105 112 130 162 160 165 172
74 74 82 80 64 84 54 55 38 26 26 29 41 50 56 50 55 51 62 55 47 34 32 37 37 47 57 57 63 82 54 72 81 77 32 40 74 91 104 127 133 139 148
64 76 81 74 66 78 59 49 30 26 27 25 39 51 55 51 50 58 51 44 34 39 42 48 50 51 45 48 55 63 71 76 65 56 49 40 41 102 103 120 123 115 125
86 86 78 71 72 58 52 45 31 32 26 32 42 45 50 49 50 53 38 39 38 45 52 52 53 56 49 44 39 63 50 62 83 75 56 50 46 58 84 105 119 119 127
92 91 88 67 67 53 49 48 32 34 36 36 48 47 44 48 47 49 35 37 49 54 57 58 53 52 47 42 21 53 44 68 68 69 75 55 54 50 46 95 101 107 97
106 99 89 68 61 60 54 43 42 33 38 40 54 48 55 51 52 45 39 47 56 62 65 56 53 48 34 33 20 25 19 47 46 36 27 19 23 50 58 52 50 72 113
113 100 79 77 74 85 67 56 40 29 31 39 52 55 58 51 53 51 43 53 58 69 60 53 50 47 33 41 39 26 31 38 54 33 21 13 35 60 74 60 36 42 52
100 82 80 72 77 70 67 56 57 55 52 64 65 54 48 50 52 40 48 55 62 65 70 66 63 45 31 36 32 14 27 24 32 45 33 64 84 73 69 65 54 49 45
92 80 79 72 73 75 84 98 88 84 71 68 56 49 43 47 43 45 48 63 62 75 73 69 63 61 54 32 40 28 25 16 22 41 45 51 71 83 87 89 61 48 48
58 72 80 87 95 92 103 99 89 76 71 69 77 65 56 52 49 54 61 72 77 82 78 73 73 64 68 53 50 53 39 42 29 43 63 56 85 82 78 90 82 57 56
82 81 86 107 120 127 114 105 102 95 94 92 82 70 58 46 54 74 89 89 91 92 78 71 68 68 73 70 69 70 67 67 72 92 72 87 110 81 91 97 89 74 63
90 108 119 130 130 137 130 126 123 111 107 105 86 76 59 59 54 60 90 114 107 97 90 82 80 80 80 83 88 85 92 88 90 112 110 104 80 71 83 119 118 83 72
Wind_Speed
27 34 33 32 34 35 36 36 36 36 36 36 37 39 43 46 47 47 47 47 47 47 48 45 45 45 45 45 45 45 45 44 43 42 41 39 38 38 40 41 42 41 39
33 32 32 31 30 32 34 34 33 33 32 33 36 39 43 46 46 45 46 46 46 46 46 46 46 45 44 44 44 44 43 43 43 42 41 38 36 34 35 39 40 41 40
31 32 30 30 30 30 31 32 31 32 32 34 37 40 43 45 47 48 49 48 48 48 48 48 47 44 43 42 41 41 41 41 41 41 41 38 36 26 27 37 39 38 37
28 28 28 29 30 29 29 28 30 31 33 35 38 41 44 46 47 48 48 47 48 48 48 48 48 48 49 43 35 32 33 35 36 38 40 39 44 25 27 35 38 38 37
24 24 27 28 29 29 28 28 30 32 34 36 39 42 45 47 48 48 48 48 48 48 48 49 50 51 51 50 50 49 40 36 35 35 38 42 46 23 27 31 36 37 40
22 22 24 26 27 27 27 28 30 32 34 37 40 43 45 47 48 48 48 49 49 49 50 51 52 52 51 50 50 49 48 48 45 40 41 42 46 30 27 31 35 36 38
18 20 22 26 26 27 27 28 30 33 35 38 41 43 45 47 48 48 50 50 51 51 52 53 53 53 52 50 47 45 46 46 45 45 45 47 43 44 30 34 39 39 39
18 18 19 24 26 27 27 28 30 33 36 39 41 43 46 48 49 49 51 51 52 53 54 55 55 55 53 50 48 47 47 49 49 50 50 50 49 44 35 37 41 43 43
15 15 16 20 22 24 26 28 30 33 36 39 41 43 45 47 48 50 52 52 53 54 55 56 57 57 56 55 54 49 51 53 53 51 51 47 44 42 43 41 46 47 46
12 13 15 17 20 23 24 26 29 32 35 38 42 44 44 44 46 47 51 54 54 56 59 56 59 57 57 57 58 55 53 53 52 49 50 47 46 44 44 43 48 53 52
8 11 13 15 17 21 23 25 28 31 34 39 42 45 46 42 47 48 50 54 57 57 60 59 59 60 58 57 57 57 55 52 52 47 46 47 44 43 45 48 50 52 53
5 10 13 16 17 20 22 24 28 31 34 39 42 45 46 47 50 50 52 55 57 61 61 61 61 60 59 57 55 54 53 51 50 43 46 47 46 47 49 51 52 53 52
3 8 12 15 18 20 24 24 28 31 34 39 42 44 45 48 50 51 53 56 59 61 61 62 62 60 59 57 56 52 51 49 45 45 46 47 48 49 50 51 50 49 50
3 6 10 14 17 20 23 26 28 31 35 38 41 44 45 47 50 52 53 57 60 60 61 62 61 59 58 58 56 54 48 43 42 44 46 48 49 48 48 47 47 47 46
1 4 9 13 16 19 24 27 29 32 35 38 41 44 45 47 49 51 53 56 59 58 59 60 60 58 58 58 57 55 46 46 43 43 46 49 49 50 49 49 50 50 50
2 3 8 12 16 19 22 26 30 32 35 37 40 43 45 47 49 51 53 55 57 56 56 59 58 57 59 57 55 56 47 46 39 42 43 47 49 51 48 47 48 49 49
3 3 7 11 15 18 23 27 30 33 35 37 39 42 44 47 49 51 51 53 54 55 56 58 59 58 59 58 54 52 48 44 40 40 42 43 45 49 48 49 49 48 49
4 3 6 11 14 19 23 27 30 33 35 37 38 40 43 45 48 49 50 51 52 53 55 57 58 58 58 58 52 52 42 41 41 41 43 44 44 45 46 46 48 49 50
6 5 7 11 14 17 26 29 31 34 36 37 38 37 42 42 46 47 48 49 51 53 55 57 57 56 56 59 51 48 39 40 40 42 42 42 43 44 46 47 49 50 50
9 8 10 14 17 17 23 29 33 35 36 36 36 37 40 40 43 45 47 48 50 51 54 56 56 57 51 59 53 46 39 38 41 40 40 39 39 42 45 48 51 51 50
12 11 11 15 18 20 27 32 36 37 36 37 36 36 38 39 41 45 45 47 48 51 51 53 53 55 51 59 52 49 45 39 40 40 40 38 37 41 45 48 51 51 51
15 12 13 16 20 26 31 34 36 35 37 37 36 38 38 39 41 43 44 46 47 49 50 50 51 53 50 53 51 48 51 46 45 39 38 40 40 40 44 47 50 51 52
14 12 13 18 23 27 29 31 35 37 40 40 39 39 39 38 41 42 44 45 46 47 47 47 47 50 52 49 50 47 52 52 55 43 42 43 42 42 44 45 48 50 51
14 14 20 24 25 29 29 32 34 38 40 39 40 40 42 40 41 42 44 45 45 44 44 44 44 46 47 50 46 47 47 49 55 57 47 54 46 43 43 44 46 48 49
12 15 23 27 26 27 28 31 34 37 38 41 43 46 47 48 45 44 45 45 44 42 42 41 43 45 45 46 44 49 52 52 52 52 61 56 53 51 46 42 43 46 49
14 17 21 24 26 28 28 30 33 36 41 46 49 51 52 53 55 52 43 41 41 41 40 41 41 43 45 46 46 48 49 53 55 56 59 59 61 57 48 42 43 45 46
Wind_Direction
79 92 84 76 71 66 59 51 42 36 27 19 13 13 21 33 39 37 33 28 24 19 13 20 14 10 9 8 7 7 7 7 5 4 4 6 9 9 5 4 357 355 352
94 89 83 76 65 59 57 48 36 23 7 1 1 6 10 23 28 34 30 28 25 19 15 9 5 10 11 11 11 10 9 9 8 4 2 3 5 8 8 3 357 353 351
86 86 77 72 65 56 53 44 31 21 9 4 3 5 8 11 13 16 18 17 16 13 12 10 7 9 10 14 15 13 12 10 9 7 5 5 4 16 14 1 356 352 349
80 77 73 72 67 57 44 32 23 15 8 5 8 10 14 16 15 18 21 20 12 2 358 354 354 351 351 9 28 31 26 19 16 10 5 1 352 23 13 358 351 348 343
64 67 67 64 61 53 40 28 20 14 10 9 11 11 15 15 16 18 21 12 357 351 345 342 341 341 346 349 349 352 5 8 8 6 360 351 345 17 12 3 356 347 337
58 56 59 58 56 47 36 23 15 10 9 8 8 10 13 16 18 23 18 3 353 346 342 340 342 348 353 352 351 350 349 348 350 352 349 345 341 353 357 356 352 347 342
59 52 55 59 51 40 26 15 8 5 4 5 7 11 16 20 26 25 10 360 353 349 352 353 354 353 352 353 354 354 351 348 345 341 337 333 337 335 341 340 340 340 337
73 55 46 52 52 40 23 7 1 0 1 3 9 16 20 23 27 27 6 358 355 357 358 358 358 358 1 0 358 353 347 341 337 332 330 327 326 331 334 334 333 333 330
64 55 46 42 34 25 17 5 359 1 4 7 13 18 21 25 27 21 6 2 360 359 2 0 360 0 0 359 356 355 350 342 335 331 331 332 329 330 331 330 329 328 326
61 53 47 39 28 21 11 3 1 2 4 1 0 6 22 31 28 21 8 4 2 360 358 1 358 360 359 357 356 354 350 348 346 343 338 335 329 332 333 332 328 325 325
21 25 29 34 24 17 10 357 351 355 352 350 350 360 14 33 23 20 15 8 3 4 359 0 360 1 0 360 357 354 354 352 348 352 350 347 347 345 339 333 329 327 325
46 27 14 14 14 357 355 349 343 350 354 353 351 353 4 16 15 17 12 7 5 1 359 360 1 2 2 3 2 1 1 358 354 356 351 348 344 340 336 331 326 324 324
46 21 25 7 1 355 345 343 347 351 351 352 352 355 3 8 11 15 14 9 5 1 1 359 2 5 5 5 7 9 10 10 13 3 355 352 346 342 336 332 329 327 325
85 43 28 8 356 346 333 338 337 341 346 352 353 356 1 6 9 12 13 8 4 4 1 2 4 7 8 6 6 8 16 26 29 20 7 358 356 354 350 345 346 345 345
154 36 21 2 352 352 327 322 335 339 345 352 354 357 360 4 7 10 12 9 6 7 7 4 7 8 6 7 1 7 19 20 29 25 18 8 4 359 351 346 342 341 338
193 36 16 357 344 359 332 330 331 335 344 349 354 358 360 2 5 7 10 10 8 9 10 7 8 8 3 4 359 360 13 11 26 25 21 15 11 6 3 1 358 354 350
224 33 17 350 345 1 332 330 329 332 342 346 353 357 360 1 3 6 8 10 10 10 9 7 5 6 1 359 356 1 14 22 28 25 21 18 14 11 11 6 3 359 354
242 310 350 336 337 337 327 327 329 332 338 347 352 357 359 2 3 4 6 10 9 9 8 6 5 6 360 358 356 353 12 15 15 14 11 12 14 10 5 4 2 359 355
248 285 319 322 333 339 311 315 327 330 336 344 351 357 358 2 2 3 4 7 7 7 6 4 3 4 1 352 352 355 5 6 5 2 3 6 7 7 3 360 355 353 352
262 281 303 309 317 327 322 319 324 330 336 344 350 355 358 0 1 0 1 3 4 4 2 1 360 360 4 350 349 348 353 358 359 0 3 6 9 6 2 358 353 350 350
266 274 288 299 305 311 311 315 319 326 335 341 348 353 354 357 357 356 357 359 1 0 360 360 359 358 360 353 353 345 346 350 352 352 354 359 2 2 360 357 354 353 350
260 270 282 292 297 299 304 311 321 329 334 341 347 347 351 353 353 352 354 355 356 355 356 356 357 354 356 358 354 346 336 337 339 344 347 352 354 355 354 354 354 352 350
257 262 276 288 293 297 307 316 321 326 330 335 340 343 346 349 348 348 349 351 350 352 351 353 353 351 350 352 352 347 334 328 330 337 335 340 343 346 349 350 352 352 351
253 270 281 286 291 297 306 314 321 322 325 333 338 341 342 344 343 344 345 345 345 348 348 348 349 348 348 345 349 344 336 330 326 326 331 331 336 339 341 344 347 350 349
261 271 281 286 292 300 307 313 318 320 327 332 333 333 334 334 336 337 339 341 343 344 343 343 342 342 343 342 342 339 332 328 325 324 321 328 330 332 334 338 343 344 345
277 281 285 288 294 301 306 312 317 320 323 325 327 328 330 332 332 334 335 336 338 339 338 336 336 336 336 336 335 333 331 327 324 324 322 324 324 329 334 334 335 338 342